Regional Weather Roundup
Issued by NWS

Home | Current Version | Previous Version | Graphics & Text | Print | Product List | Glossary On
Versions: 1 2 3 4 5 6 7 8 9 10 11 12 13 14 15 16 17 18 19 20 21 22 23 24 25 26 27 28 29 30 31 32 33 34 35 36 37 38 39 40 41 42 43 44 45 46 47 48 49 50
000
ASUS43 KMKX 221000
RWRWI

WISCONSIN REGIONAL WEATHER ROUNDUP
NATIONAL WEATHER SERVICE MILWAUKEE/SULLIVAN WI
400 AM CST MON DEC 22 2014

NOTE: "FAIR" INDICATES FEW OR NO CLOUDS BELOW 12,000 FEET WITH NO
SIGNIFICANT WEATHER AND/OR OBSTRUCTIONS TO VISIBILITY.

WIZ001-002-006>008-014>016-023>028-221100-
NORTHWEST WISCONSIN

CITY           SKY/WX    TMP DP  RH WIND       PRES   REMARKS
SUPERIOR ARPT  LGT RAIN  34  33  98 CALM      29.73S
ASHLAND        CLOUDY    35  33  92 S5        29.77S WCI  31
HAYWARD        CLOUDY    35  32  88 S10       29.74F WCI  27
SIREN          DRIZZLE   35  34  96 S10       29.71F WCI  27
CUMBERLAND     CLOUDY    32  32 100 SE10      29.73S FOG     WCI  24
RICE LAKE      DRIZZLE   34  33  96 SE9       29.76S WCI  26
CHETEK         LGT RAIN  33  33  98 SE7       29.75F WCI  27
LADYSMITH      LGT RAIN  34  33  95 SE8       29.78F WCI  28
EAU CLAIRE     NOT AVBL
MENOMONIE      CLOUDY    36  36  97 SE7       29.76S FOG     WCI  31
NEW RICHMOND   LGT RAIN  36  36 100 S10       29.72S WCI  28
OSCEOLA        LGT SNOW  37  37 100 SE12      29.74S WCI  29
$$

WIZ003>005-009-010-017-018-221100-
NORTH CENTRAL WISCONSIN

CITY           SKY/WX    TMP DP  RH WIND       PRES   REMARKS
MANITOWISH WTR CLOUDY    32  32 100 S12       29.79S FOG     WCI  23
ARBOR VITAE    CLOUDY    34  33  94 S7        29.80F FOG     WCI  28
WOODRUFF       CLOUDY    34  33  94 S7        29.80F FOG     WCI  28
RHINELANDER    CLOUDY    32  30  92 S12G17    29.82S FOG     WCI  23
EAGLE RIVER    CLOUDY    32  32 100 S7        29.82S FOG     WCI  26
LAND O LAKES   LGT SNOW  33  32  99 S8        29.82S WCI  25
PHILLIPS       CLOUDY    33  32  96 S10G17    29.77F WCI  25
TOMAHAWK       LGT SNOW  32  31  96 CALM      29.82F
MEDFORD        LGT SNOW  32  31  98 SE12      29.80F WCI  23
MERRILL        LGT SNOW  32  32  99 S8        29.84S WCI  25
$$

WIZ029-030-035-036-043>047-221100-
CENTRAL WISCONSIN

CITY           SKY/WX    TMP DP  RH WIND       PRES   REMARKS
WAUSAU         CLOUDY    33  31  92 S13       29.83F FOG     WCI  24
MOSINEE        CLOUDY    32  32 100 SE10      29.85F FOG     WCI  24
MARSHFIELD     CLOUDY    34  31  88 S10       29.82F FOG     WCI  26
STEVENS POINT  CLOUDY    32  29  91 S9        29.87F WCI  24
WAUPACA        CLOUDY    36  31  82 SE8       29.91F WCI  29
WAUTOMA        NOT AVBL
WISC RAPIDS    CLOUDY    34  29  82 SE10      29.86F WCI  26
CAMP DOUGLAS   CLOUDY    34  34 100 SE7       29.84F WCI  28
$$

WIZ011>013-019>022-031-037>040-048>050-221100-
NORTHEAST WISCONSIN

CITY           SKY/WX    TMP DP  RH WIND       PRES   REMARKS
ANTIGO         CLOUDY    31  31  99 S10       29.86S FOG     WCI  22
SHAWANO        CLOUDY    36  31  82 S7        29.92S WCI  31
OCONTO         CLOUDY    35  31  88 S7        29.94S WCI  29
STURGEON BAY   CLOUDY    36  30  80 S12       29.96F WCI  27
GREEN BAY      CLOUDY    35  31  85 S7        29.93F WCI  29
MANITOWOC      NOT AVBL
APPLETON       NOT AVBL
CLINTONVILLE   CLOUDY    34  30  86 S8        29.91F WCI  27
OSHKOSH        CLOUDY    35  29  78 SE12      29.91F WCI  27
$$

WIZ032>034-041-042-053>061-221100-
SOUTHWEST WISCONSIN

CITY           SKY/WX    TMP DP  RH WIND       PRES   REMARKS
LA CROSSE      CLOUDY    38  33  82 SE12      29.80F WCI  30
SPARTA         CLOUDY    35  32  88 S10G16    29.83F WCI  27
VIROQUA        CLOUDY    33  33 100 SE13      29.80F WCI  24
BOSCOBEL       CLOUDY    36  31  82 CALM      29.84F
PRAIRIE DU CHI CLOUDY    36  31  83 SE8       29.82F WCI  29
PLATTEVILLE    CLOUDY    35  32  90 SE3       29.84F
$$

WIZ056-057-062-063-064-067-068-221100-
SOUTH CENTRAL WISCONSIN

CITY           SKY/WX    TMP DP  RH WIND       PRES   REMARKS
REEDSBURG      LGT RAIN  33  31  92 SE5       29.86F WCI  29
BARABOO/DELLS  CLOUDY    33  31  91 S10       29.87F FOG     WCI  25
LONE ROCK      NOT AVBL
MINERAL POINT  CLOUDY    34  32  93 SE10      29.84F FOG     WCI  26
MADISON        CLOUDY    34  30  85 SE13      29.88F WCI  25
MIDDLETON      CLOUDY    35  32  89 SE8       29.88F WCI  28
WATERTOWN      CLOUDY    32  32  99 SE7       29.91F FOG     WCI  26
MONROE         CLOUDY    32  32 100 SE12      29.87F FOG     WCI  23
JANESVILLE     CLOUDY    34  32  93 SE9       29.91F FOG     WCI  26
$$

WIZ051-052-058>065-066-070>072-221100-
SOUTHEAST WISCONSIN

CITY           SKY/WX    TMP DP  RH WIND       PRES   REMARKS
MILWAUKEE      CLOUDY    34  28  79 S10       29.96F WCI  26
WAUKESHA       CLOUDY    32  28  86 SE12      29.95F WCI  23
MILWAUKEE/TIMM CLOUDY    32  28  86 S8        29.96F WCI  25
RACINE         MOCLDY    34  28  79 S9        29.98F WCI  27
BURLINGTON     CLOUDY    31  27  86 SE7       29.94F WCI  24
KENOSHA        MOCLDY    31  27  85 SE6       29.95F FOG     WCI  25
FOND DU LAC    CLOUDY    35  28  75 S12       29.92F WCI  27
SHEBOYGAN      CLOUDY    35  30  82 S9        29.95F WCI  28
WEST BEND      CLOUDY    32  28  86 SE5       29.95F WCI  27
JUNEAU         CLOUDY    33  29  86 SE10      29.92F FOG     WCI  25
$$

LSZ147-162-221100-
LAKE SUPERIOR

STATION/POSITION TIME  TEMP    WIND        PRES    WAVE
                       AIR SEA DIR/SP/G            HT/PER
                 (UTC) (F)     (DEG/KT/KT) (MB)    (FT/S)
DEVILS ISLAND    0900   36     170/  9/ 12 1008.7F
PORT WING        0900   35     140/  1/  3 1007.8
SAXON HARBOR     0900   37     160/  2/  6 1008.1F
$$

LMZ867-665-643>646-221100-
LAKE MICHIGAN

STATION/POSITION TIME  TEMP    WIND        PRES    WAVE
                       AIR SEA DIR/SP/G            HT/PER
                 (UTC) (F)     (DEG/KT/KT) (MB)    (FT/S)
CHAMBERS ISLAND  0900   37     160/  8/ 13 1014.2F
NORTHPORT PIER   0900   36     150/ 11/ 22 1014.9F
SISTER BAY       0913          180/ 16/ 21   N/A
ALGOMA LAKESHORE 0914          220/ 22/ 25   N/A
KEWAUNEE LAKESHO 0900   37     180/ 16/ 19 1013.8F
SHEBOYGAN LAKESH 0900   37 36  180/ 23/ 24 1015.3F
PORT WASHINGTON  0900   36     190/ 12/ 16 1015.6F
MILWAUKEE LAKESH 0900   35     180/ 12/ 14   N/A
KENOSHA   LAKESH 0900   34     170/ 15/ 18 1015.2S
$$

TC  - TEMPERATURE IN CELSIUS
VSB - VISIBILITY IN STATUTE MILES
WCI - WIND CHILL INDEX
HX  - HEAT INDEX




USA.gov is the U.S. government's official web portal to all federal, state and local government web resources and services.